ANIK G1

Last updated on Fri Dec 19 2025 00:02:50 GMT+0000 (Coordinated Universal Time)

1 39127U 13014A 25352.60404825 -.00000049 00000+0 00000+0 0 9999 2 39127 0.0297 282.5205 0003307 342.4256 292.6773 1.00271614 46441
UTC large
Height (km)
Speed (km/s)
/
Latitude / Longitude
Inclination (degrees)
Orbital Period (minutes)
Azimuth
Elevation
Range (km)
Doppler Factor

Next 0 passes for location: London (51.5072 / 0.1276)

Sorry there are no passes over London.